Temp
-8 -8 -8 -8 -8 -9 -9 -9 -9 -9 -9 -9 -9 -9 -9 -10 -9 -9 -9 -9 -9 -10 -10 -10 -10 -10 -10 -10 -10 -10 -10 -10 -10 -10 -10 -10 -10 -10 -10 -10 -10 -10 -9 -9 -9 -9 -9 -9 -9 -9 -9 -9 -9 -9 -8 -8 -8 -8 -8 -8 -8 -8 -8
-8 -9 -9 -9 -9 -9 -9 -9 -10 -10 -10 -10 -10 -10 -10 -10 -10 -10 -10 -10 -10 -10 -10 -10 -10 -11 -11 -11 -11 -11 -11 -11 -11 -11 -10 -10 -10 -10 -11 -11 -11 -11 -10 -10 -9 -9 -9 -9 -9 -9 -9 -9 -9 -9 -9 -9 -9 -9 -9 -9 -9 -9 -8
-9 -9 -9 -9 -10 -10 -10 -10 -10 -10 -10 -10 -10 -11 -11 -11 -11 -11 -11 -11 -11 -11 -11 -11 -11 -11 -11 -11 -11 -11 -11 -11 -11 -11 -11 -11 -11 -11 -11 -11 -12 -11 -11 -11 -10 -10 -10 -10 -10 -9 -9 -9 -9 -10 -9 -9 -9 -9 -9 -9 -9 -9 -9
-10 -10 -10 -10 -10 -10 -10 -11 -11 -11 -11 -11 -11 -11 -11 -11 -11 -11 -12 -11 -11 -11 -11 -11 -12 -12 -12 -12 -12 -12 -12 -12 -12 -12 -12 -12 -12 -12 -12 -12 -12 -12 -12 -11 -11 -11 -11 -11 -10 -10 -10 -10 -10 -10 -10 -10 -10 -10 -10 -10 -10 -10 -10
-10 -10 -11 -11 -11 -11 -11 -11 -11 -11 -11 -11 -11 -11 -11 -12 -12 -12 -12 -12 -12 -12 -12 -12 -12 -12 -12 -12 -12 -12 -13 -13 -13 -13 -12 -12 -13 -13 -13 -13 -13 -13 -13 -12 -12 -12 -12 -11 -11 -11 -11 -10 -10 -10 -10 -10 -10 -10 -10 -10 -10 -10 -10
-11 -11 -11 -11 -11 -11 -11 -11 -11 -11 -11 -11 -12 -12 -12 -12 -12 -12 -12 -12 -12 -12 -12 -13 -13 -13 -13 -13 -13 -13 -13 -13 -13 -13 -13 -13 -13 -13 -13 -13 -13 -13 -13 -13 -12 -12 -12 -12 -12 -11 -11 -11 -11 -10 -10 -10 -10 -10 -10 -10 -10 -10 -10
-11 -11 -11 -11 -11 -11 -11 -11 -12 -12 -12 -12 -12 -12 -12 -12 -12 -13 -13 -13 -13 -13 -13 -13 -13 -13 -13 -14 -14 -13 -13 -13 -13 -13 -13 -13 -13 -13 -13 -13 -13 -13 -13 -13 -13 -12 -12 -12 -12 -12 -12 -12 -11 -11 -11 -10 -10 -10 -10 -10 -10 -10 -10
-11 -11 -11 -12 -12 -12 -12 -12 -12 -12 -12 -12 -12 -12 -12 -12 -13 -13 -13 -13 -13 -13 -13 -13 -13 -14 -14 -14 -14 -14 -14 -14 -14 -14 -14 -14 -14 -14 -13 -13 -13 -13 -13 -13 -13 -12 -12 -12 -12 -12 -12 -12 -12 -12 -11 -11 -10 -10 -10 -10 -10 -10 -10
-12 -12 -12 -12 -12 -12 -12 -12 -13 -13 -13 -13 -13 -13 -13 -13 -13 -13 -13 -13 -14 -14 -14 -14 -14 -14 -14 -14 -14 -14 -14 -14 -14 -14 -14 -14 -14 -14 -14 -14 -13 -13 -13 -13 -13 -13 -13 -12 -12 -12 -12 -12 -12 -12 -12 -11 -11 -11 -11 -11 -11 -10 -10
-12 -12 -12 -12 -13 -13 -13 -13 -13 -13 -13 -13 -13 -13 -13 -13 -13 -13 -13 -14 -14 -14 -14 -14 -14 -14 -14 -14 -14 -15 -15 -15 -15 -14 -14 -14 -14 -14 -14 -14 -14 -14 -14 -14 -13 -13 -13 -13 -13 -13 -13 -13 -12 -12 -12 -12 -12 -11 -11 -11 -11 -11 -11
-13 -13 -13 -13 -13 -13 -13 -13 -13 -14 -13 -13 -14 -14 -13 -13 -13 -14 -14 -14 -14 -14 -15 -15 -15 -15 -15 -15 -15 -15 -15 -15 -15 -15 -15 -15 -15 -15 -15 -14 -14 -14 -14 -14 -14 -14 -14 -14 -13 -13 -13 -13 -13 -13 -12 -12 -12 -12 -12 -12 -12 -12 -12
-13 -13 -13 -13 -13 -13 -13 -13 -14 -14 -14 -14 -14 -14 -14 -14 -14 -14 -14 -15 -15 -15 -15 -15 -15 -15 -15 -15 -15 -15 -15 -15 -15 -15 -15 -15 -15 -15 -15 -15 -15 -15 -15 -15 -14 -14 -14 -14 -14 -14 -14 -13 -13 -13 -13 -13 -13 -12 -12 -12 -12 -12 -12
-13 -13 -13 -13 -13 -13 -13 -14 -14 -14 -14 -14 -15 -15 -15 -15 -14 -14 -15 -15 -15 -16 -15 -15 -16 -16 -16 -16 -16 -16 -16 -16 -16 -16 -16 -16 -16 -16 -16 -15 -15 -15 -15 -15 -15 -15 -15 -15 -14 -14 -14 -14 -14 -14 -14 -13 -13 -13 -13 -13 -12 -12 -12
-14 -14 -14 -14 -14 -14 -14 -14 -15 -15 -15 -15 -15 -15 -15 -15 -15 -15 -15 -15 -16 -16 -16 -16 -16 -16 -16 -16 -16 -16 -16 -16 -16 -16 -16 -16 -16 -16 -16 -16 -16 -16 -16 -16 -15 -15 -15 -15 -15 -15 -15 -15 -14 -14 -14 -14 -14 -13 -13 -13 -13 -12 -12
-14 -14 -15 -15 -15 -14 -14 -15 -15 -15 -15 -15 -15 -16 -15 -15 -15 -16 -16 -16 -16 -16 -17 -17 -17 -16 -16 -17 -17 -17 -17 -16 -16 -16 -16 -16 -17 -17 -17 -17 -17 -17 -17 -16 -16 -16 -15 -15 -15 -15 -15 -15 -15 -15 -15 -14 -14 -14 -14 -14 -13 -13 -13
-14 -14 -15 -15 -15 -15 -15 -15 -16 -16 -16 -16 -16 -16 -16 -16 -16 -16 -16 -16 -17 -17 -17 -17 -17 -17 -17 -17 -17 -17 -17 -17 -17 -16 -16 -17 -17 -17 -17 -17 -18 -18 -17 -17 -17 -16 -16 -16 -16 -16 -16 -16 -16 -16 -15 -15 -15 -15 -15 -15 -14 -14 -14
-14 -14 -15 -15 -15 -15 -15 -15 -16 -16 -16 -16 -16 -16 -16 -16 -16 -16 -16 -16 -17 -17 -17 -17 -17 -17 -17 -17 -18 -18 -18 -17 -17 -17 -17 -17 -17 -17 -17 -18 -18 -18 -18 -18 -17 -17 -17 -17 -17 -17 -17 -17 -17 -16 -16 -16 -16 -16 -16 -16 -15 -15 -15
-14 -14 -15 -15 -15 -15 -15 -16 -16 -17 -17 -17 -17 -17 -17 -17 -16 -16 -16 -17 -17 -17 -18 -18 -18 -18 -18 -18 -18 -18 -18 -18 -18 -17 -17 -17 -17 -17 -18 -18 -19 -18 -18 -18 -18 -18 -18 -18 -18 -18 -18 -18 -18 -17 -17 -17 -17 -17 -17 -16 -16 -16 -16
-15 -15 -15 -15 -16 -16 -16 -16 -16 -17 -17 -17 -18 -18 -17 -17 -17 -17 -17 -17 -17 -17 -18 -18 -18 -19 -18 -18 -18 -19 -19 -19 -18 -18 -18 -18 -18 -18 -18 -19 -19 -19 -18 -19 -19 -19 -19 -18 -18 -18 -19 -19 -19 -19 -18 -18 -18 -18 -18 -17 -17 -17 -16
-15 -15 -16 -16 -16 -16 -17 -17 -17 -17 -17 -18 -18 -18 -18 -18 -18 -17 -17 -17 -17 -17 -18 -18 -19 -19 -19 -19 -19 -19 -19 -19 -19 -19 -19 -19 -19 -19 -19 -19 -19 -19 -19 -19 -19 -19 -19 -19 -19 -19 -19 -20 -20 -20 -19 -19 -19 -19 -18 -18 -18 -18 -17
-16 -16 -16 -17 -17 -17 -17 -18 -18 -18 -18 -18 -18 -19 -19 -19 -18 -18 -18 -18 -18 -18 -18 -19 -19 -20 -20 -20 -19 -20 -20 -20 -20 -20 -20 -20 -20 -20 -20 -20 -20 -20 -20 -20 -20 -20 -20 -20 -20 -20 -20 -20 -21 -21 -21 -20 -20 -19 -19 -19 -19 -18 -18
-17 -17 -17 -17 -18 -18 -18 -18 -18 -18 -18 -19 -19 -19 -19 -19 -19 -19 -18 -18 -18 -18 -19 -19 -20 -20 -20 -20 -20 -20 -20 -21 -21 -21 -21 -21 -21 -21 -21 -21 -21 -21 -21 -21 -21 -21 -21 -21 -21 -21 -21 -21 -21 -21 -21 -21 -21 -20 -20 -20 -19 -19 -19
-18 -18 -18 -18 -18 -18 -19 -19 -19 -19 -19 -19 -19 -19 -19 -19 -19 -19 -19 -19 -18 -19 -19 -19 -20 -20 -21 -21 -21 -21 -21 -21 -21 -22 -22 -22 -22 -21 -21 -21 -21 -21 -22 -22 -21 -21 -21 -21 -22 -22 -22 -22 -22 -22 -21 -21 -21 -21 -21 -20 -20 -20 -20
-18 -18 -18 -18 -18 -19 -19 -19 -20 -20 -20 -20 -20 -20 -20 -20 -20 -20 -19 -19 -19 -19 -20 -20 -20 -20 -21 -21 -22 -22 -22 -22 -22 -22 -22 -22 -22 -22 -22 -22 -22 -22 -22 -22 -22 -22 -22 -22 -22 -22 -22 -22 -22 -22 -22 -22 -22 -22 -22 -21 -21 -21 -21
-19 -19 -19 -19 -19 -19 -19 -20 -20 -20 -21 -21 -21 -20 -20 -20 -20 -20 -20 -20 -20 -20 -21 -21 -21 -21 -22 -22 -22 -23 -23 -23 -23 -23 -23 -23 -23 -23 -23 -23 -23 -23 -22 -22 -22 -23 -22 -23 -23 -23 -23 -23 -23 -23 -23 -23 -23 -23 -23 -22 -22 -22 -22
-19 -19 -19 -19 -20 -20 -20 -20 -20 -21 -21 -21 -21 -21 -21 -21 -21 -21 -21 -21 -21 -21 -21 -22 -22 -22 -23 -23 -23 -23 -23 -24 -24 -24 -24 -24 -24 -24 -23 -23 -23 -23 -23 -23 -23 -23 -23 -23 -23 -23 -23 -24 -24 -24 -24 -24 -24 -24 -23 -23 -23 -23 -22
-20 -20 -20 -20 -20 -20 -20 -20 -21 -21 -22 -22 -22 -21 -22 -22 -22 -22 -22 -22 -22 -22 -22 -22 -23 -23 -23 -24 -24 -24 -24 -24 -24 -24 -24 -24 -24 -24 -24 -24 -24 -23 -23 -23 -23 -24 -24 -24 -24 -24 -24 -24 -24 -24 -24 -24 -24 -24 -24 -24 -24 -23 -23
-21 -21 -21 -21 -21 -21 -21 -21 -21 -22 -22 -22 -22 -22 -22 -22 -23 -23 -23 -23 -23 -23 -23 -23 -23 -24 -24 -24 -24 -24 -24 -24 -24 -24 -24 -25 -25 -25 -25 -24 -24 -24 -24 -24 -24 -24 -24 -25 -25 -25 -24 -24 -24 -24 -25 -25 -24 -24 -24 -24 -24 -24 -23
-21 -21 -21 -21 -21 -21 -21 -21 -21 -22 -23 -23 -22 -22 -22 -23 -23 -23 -24 -24 -24 -23 -23 -23 -24 -24 -24 -24 -24 -24 -24 -24 -24 -25 -25 -25 -25 -25 -25 -25 -25 -25 -25 -25 -25 -25 -25 -25 -25 -25 -25 -25 -25 -25 -25 -25 -25 -25 -25 -24 -24 -24 -24
-22 -22 -22 -21 -21 -21 -21 -21 -22 -22 -23 -23 -23 -23 -23 -23 -24 -24 -24 -24 -24 -24 -24 -24 -24 -25 -25 -25 -25 -25 -25 -25 -25 -25 -25 -25 -25 -25 -25 -25 -25 -25 -25 -25 -25 -25 -25 -25 -25 -26 -26 -25 -25 -25 -25 -25 -25 -25 -25 -25 -25 -24 -24
-22 -22 -22 -22 -22 -22 -22 -22 -22 -23 -23 -23 -24 -24 -24 -24 -24 -24 -25 -25 -25 -24 -24 -24 -25 -25 -25 -25 -25 -25 -25 -25 -25 -25 -25 -26 -26 -26 -26 -25 -25 -26 -26 -26 -25 -25 -25 -25 -26 -26 -26 -26 -26 -26 -26 -25 -25 -25 -25 -25 -25 -25 -25
-22 -23 -23 -23 -23 -22 -22 -22 -23 -23 -23 -24 -24 -24 -24 -25 -25 -25 -25 -25 -25 -25 -25 -25 -25 -25 -25 -25 -25 -25 -25 -25 -25 -25 -25 -25 -25 -26 -26 -26 -26 -26 -26 -25 -25 -25 -26 -26 -26 -26 -26 -26 -26 -26 -26 -26 -26 -25 -25 -25 -25 -25 -25
-23 -23 -23 -23 -23 -23 -23 -23 -23 -23 -24 -24 -24 -25 -25 -25 -25 -25 -25 -25 -25 -25 -25 -25 -25 -25 -25 -25 -25 -25 -26 -26 -26 -26 -26 -26 -26 -26 -26 -26 -26 -26 -26 -25 -26 -26 -26 -26 -26 -26 -26 -26 -26 -26 -26 -26 -26 -26 -26 -25 -25 -25 -25
-23 -24 -24 -24 -24 -24 -24 -24 -24 -24 -24 -24 -25 -25 -25 -25 -25 -25 -26 -26 -26 -26 -26 -26 -26 -26 -26 -26 -26 -26 -26 -26 -26 -26 -26 -26 -26 -26 -26 -26 -26 -26 -26 -26 -26 -26 -26 -26 -26 -26 -26 -26 -26 -26 -26 -26 -26 -26 -26 -26 -26 -25 -25
-23 -24 -25 -25 -24 -25 -25 -25 -25 -24 -24 -25 -25 -25 -26 -25 -25 -25 -26 -26 -26 -26 -26 -26 -26 -26 -26 -26 -26 -26 -26 -26 -26 -26 -26 -26 -26 -26 -26 -26 -26 -26 -26 -26 -26 -26 -26 -26 -26 -26 -26 -26 -26 -26 -26 -26 -26 -26 -26 -26 -26 -26 -26
-23 -24 -25 -25 -25 -25 -25 -25 -25 -25 -25 -25 -26 -26 -26 -26 -25 -26 -26 -26 -26 -26 -26 -26 -26 -26 -26 -26 -26 -26 -26 -26 -26 -26 -26 -26 -26 -26 -26 -26 -26 -26 -26 -26 -26 -26 -26 -26 -26 -26 -26 -26 -26 -26 -26 -26 -26 -26 -26 -26 -26 -26 -26
Height
2964 2962 2960 2959 2958 2957 2956 2954 2953 2952 2950 2949 2948 2946 2945 2944 2942 2941 2940 2938 2937 2935 2934 2932 2931 2930 2928 2927 2926 2924 2923 2922 2922 2921 2920 2919 2919 2918 2918 2917 2917 2916 2916 2916 2917 2917 2918 2918 2918 2917 2918 2918 2918 2918 2919 2919 2920 2921 2922 2923 2924 2925 2926
2959 2957 2956 2954 2953 2952 2951 2949 2948 2946 2945 2944 2942 2941 2940 2938 2937 2936 2935 2933 2932 2930 2929 2928 2926 2924 2923 2922 2920 2919 2917 2917 2916 2915 2914 2914 2913 2912 2911 2911 2911 2911 2910 2911 2911 2911 2912 2912 2912 2912 2912 2913 2913 2914 2914 2915 2916 2917 2918 2919 2920 2921 2922
2954 2953 2951 2950 2949 2947 2946 2944 2943 2941 2940 2938 2937 2935 2934 2933 2932 2931 2929 2928 2927 2926 2924 2923 2921 2919 2918 2916 2915 2914 2912 2911 2910 2910 2909 2908 2907 2907 2906 2906 2905 2905 2905 2905 2906 2906 2907 2907 2907 2907 2907 2908 2908 2909 2910 2910 2911 2912 2913 2914 2916 2917 2917
2949 2948 2947 2945 2944 2942 2941 2939 2938 2936 2935 2933 2932 2930 2929 2927 2926 2925 2924 2923 2921 2920 2919 2918 2916 2914 2913 2912 2910 2909 2907 2906 2905 2905 2904 2903 2902 2902 2901 2901 2900 2900 2900 2900 2900 2901 2902 2902 2902 2902 2902 2903 2903 2904 2904 2905 2907 2908 2909 2910 2911 2912 2913
2945 2943 2942 2940 2939 2938 2936 2934 2933 2931 2929 2927 2926 2924 2923 2922 2920 2919 2918 2917 2916 2915 2913 2912 2911 2909 2908 2906 2905 2904 2902 2901 2900 2899 2899 2898 2898 2897 2897 2896 2896 2896 2896 2895 2895 2896 2897 2898 2898 2897 2897 2897 2898 2898 2899 2900 2901 2903 2904 2905 2907 2908 2909
2940 2938 2937 2935 2934 2932 2931 2929 2927 2925 2924 2922 2920 2919 2917 2916 2914 2913 2912 2911 2910 2909 2907 2906 2905 2904 2902 2901 2899 2898 2897 2896 2895 2894 2894 2893 2893 2892 2892 2892 2892 2891 2891 2891 2891 2891 2892 2893 2893 2893 2893 2893 2893 2894 2895 2895 2896 2898 2899 2900 2902 2903 2904
2935 2933 2932 2930 2929 2927 2925 2923 2922 2920 2918 2916 2914 2913 2911 2910 2909 2907 2906 2905 2904 2902 2901 2900 2899 2898 2896 2895 2894 2893 2892 2891 2890 2890 2889 2888 2888 2887 2887 2887 2887 2886 2886 2886 2886 2886 2886 2887 2888 2889 2889 2889 2889 2889 2890 2891 2892 2893 2894 2895 2897 2898 2899
2930 2928 2927 2925 2923 2921 2919 2917 2916 2914 2912 2911 2909 2907 2906 2904 2903 2902 2900 2899 2898 2896 2895 2893 2892 2891 2890 2889 2888 2887 2886 2886 2885 2884 2884 2883 2882 2882 2881 2881 2881 2881 2881 2881 2881 2881 2881 2881 2881 2882 2884 2884 2885 2885 2885 2886 2887 2888 2889 2890 2891 2892 2894
2925 2923 2922 2920 2918 2916 2914 2912 2910 2908 2906 2905 2903 2901 2900 2898 2897 2896 2894 2894 2892 2891 2889 2887 2886 2885 2884 2882 2881 2881 2880 2879 2879 2878 2878 2878 2877 2876 2876 2876 2875 2875 2875 2875 2875 2875 2875 2875 2875 2876 2877 2878 2879 2880 2880 2881 2882 2883 2884 2885 2886 2887 2889
2919 2918 2916 2914 2912 2910 2908 2906 2904 2902 2900 2898 2897 2895 2894 2892 2891 2889 2888 2887 2886 2885 2883 2881 2879 2878 2877 2876 2875 2874 2873 2873 2872 2872 2872 2872 2871 2871 2870 2870 2870 2869 2869 2869 2869 2869 2869 2869 2869 2870 2870 2871 2872 2874 2875 2876 2876 2877 2878 2880 2881 2882 2883
2914 2912 2910 2908 2906 2904 2902 2900 2898 2896 2893 2891 2890 2888 2887 2886 2884 2883 2882 2881 2879 2878 2877 2875 2873 2872 2870 2869 2868 2867 2866 2865 2865 2865 2865 2865 2865 2865 2864 2864 2864 2864 2864 2863 2863 2864 2863 2863 2863 2864 2864 2865 2866 2867 2868 2869 2870 2871 2873 2874 2875 2876 2878
2908 2906 2903 2901 2899 2897 2896 2894 2892 2889 2887 2885 2883 2881 2880 2878 2877 2876 2875 2874 2873 2871 2870 2868 2867 2865 2864 2863 2861 2860 2859 2858 2858 2858 2858 2858 2858 2858 2858 2858 2857 2857 2858 2858 2857 2857 2857 2858 2858 2858 2859 2859 2860 2861 2862 2863 2864 2865 2866 2868 2869 2871 2872
2901 2899 2897 2895 2893 2891 2889 2887 2885 2883 2881 2878 2877 2875 2873 2871 2870 2868 2868 2867 2866 2864 2862 2861 2859 2858 2858 2856 2855 2853 2852 2851 2851 2851 2851 2851 2851 2851 2851 2851 2851 2851 2851 2851 2851 2851 2851 2851 2852 2852 2853 2853 2854 2854 2855 2856 2858 2859 2860 2861 2863 2864 2866
2896 2894 2891 2889 2887 2885 2883 2881 2879 2876 2874 2871 2870 2868 2866 2864 2862 2861 2860 2859 2859 2858 2856 2854 2852 2851 2850 2850 2848 2847 2846 2845 2844 2844 2844 2844 2844 2844 2844 2844 2844 2844 2844 2844 2844 2844 2845 2845 2845 2845 2846 2847 2847 2848 2848 2849 2850 2852 2853 2855 2856 2858 2859
2890 2888 2886 2883 2880 2879 2877 2875 2872 2869 2867 2864 2862 2860 2858 2857 2855 2854 2853 2852 2851 2850 2849 2847 2845 2844 2843 2842 2842 2841 2839 2838 2837 2837 2837 2837 2837 2837 2837 2837 2837 2837 2837 2836 2836 2837 2838 2838 2839 2839 2839 2840 2840 2840 2841 2842 2843 2845 2846 2847 2849 2851 2852
2884 2882 2880 2877 2874 2872 2871 2869 2865 2863 2861 2858 2856 2853 2851 2850 2848 2846 2845 2844 2843 2842 2841 2839 2838 2837 2836 2835 2835 2834 2833 2831 2830 2829 2830 2830 2830 2830 2831 2831 2831 2830 2829 2829 2829 2829 2830 2831 2832 2832 2833 2833 2832 2833 2835 2836 2837 2838 2839 2840 2841 2843 2844
2878 2875 2873 2871 2868 2866 2864 2863 2860 2856 2854 2852 2849 2847 2845 2843 2841 2839 2838 2837 2836 2835 2834 2832 2830 2829 2828 2828 2827 2827 2825 2824 2823 2822 2822 2822 2823 2823 2824 2824 2824 2822 2822 2821 2822 2822 2823 2823 2824 2826 2826 2826 2826 2826 2828 2829 2829 2830 2831 2832 2833 2834 2836
2870 2868 2865 2863 2861 2859 2857 2856 2853 2850 2847 2845 2843 2840 2838 2837 2834 2832 2831 2830 2829 2827 2826 2825 2823 2822 2821 2821 2820 2819 2818 2816 2815 2814 2814 2815 2815 2816 2817 2817 2816 2815 2815 2814 2815 2815 2816 2816 2817 2818 2819 2819 2819 2820 2820 2821 2822 2823 2824 2825 2826 2827 2828
2862 2860 2858 2855 2853 2851 2849 2847 2846 2843 2840 2838 2836 2833 2831 2830 2827 2825 2824 2823 2821 2820 2818 2817 2816 2815 2814 2813 2812 2811 2810 2809 2808 2807 2807 2807 2807 2808 2809 2810 2809 2808 2807 2808 2808 2808 2808 2808 2809 2809 2811 2812 2812 2812 2813 2813 2814 2815 2816 2817 2818 2819 2820
2855 2853 2851 2848 2846 2844 2841 2839 2837 2835 2832 2830 2828 2826 2824 2822 2820 2818 2817 2815 2813 2812 2811 2810 2809 2808 2806 2805 2804 2803 2803 2802 2801 2800 2800 2800 2800 2800 2802 2802 2801 2800 2800 2800 2800 2801 2801 2801 2801 2802 2803 2804 2805 2805 2805 2805 2806 2807 2808 2809 2811 2812 2813
2848 2846 2844 2842 2839 2837 2835 2832 2829 2827 2825 2823 2821 2818 2816 2814 2813 2811 2809 2807 2806 2804 2803 2803 2802 2800 2799 2797 2796 2796 2795 2795 2794 2793 2793 2792 2792 2793 2794 2793 2793 2793 2792 2793 2793 2794 2794 2794 2795 2795 2796 2797 2797 2798 2798 2798 2798 2799 2800 2801 2803 2804 2806
2841 2839 2837 2835 2833 2830 2827 2825 2822 2820 2818 2816 2814 2811 2809 2807 2806 2804 2802 2800 2799 2797 2796 2795 2793 2792 2791 2790 2789 2788 2787 2787 2787 2786 2786 2786 2785 2785 2785 2785 2785 2785 2785 2785 2786 2786 2787 2787 2788 2788 2789 2789 2790 2791 2791 2791 2791 2791 2792 2794 2796 2797 2798
2834 2832 2830 2828 2826 2823 2820 2817 2815 2813 2811 2809 2806 2804 2802 2800 2798 2797 2795 2793 2791 2790 2788 2787 2785 2784 2783 2782 2781 2781 2780 2780 2780 2779 2779 2779 2778 2777 2777 2777 2778 2778 2778 2778 2778 2779 2780 2781 2781 2782 2782 2782 2782 2782 2783 2783 2784 2785 2786 2787 2789 2790 2791
2827 2824 2823 2821 2819 2817 2814 2811 2808 2806 2804 2801 2799 2797 2795 2793 2792 2790 2787 2785 2784 2782 2781 2779 2777 2776 2776 2775 2774 2774 2773 2773 2773 2772 2772 2771 2770 2770 2769 2770 2770 2771 2771 2771 2771 2772 2773 2774 2774 2774 2774 2775 2774 2774 2775 2776 2777 2779 2780 2781 2782 2783 2784
2820 2817 2815 2814 2812 2810 2807 2804 2802 2800 2797 2795 2792 2790 2789 2787 2785 2783 2780 2779 2777 2775 2774 2772 2771 2770 2769 2768 2768 2767 2767 2766 2766 2765 2764 2764 2764 2763 2763 2762 2763 2763 2763 2764 2765 2766 2766 2767 2768 2767 2767 2767 2767 2768 2769 2770 2771 2772 2773 2773 2775 2776 2778
2813 2811 2809 2807 2805 2803 2800 2798 2796 2794 2791 2788 2786 2784 2783 2781 2778 2776 2774 2772 2771 2769 2767 2765 2764 2764 2763 2762 2761 2761 2760 2760 2759 2759 2758 2758 2757 2757 2756 2756 2756 2756 2757 2757 2758 2759 2760 2761 2761 2760 2760 2760 2761 2762 2763 2764 2764 2765 2766 2767 2768 2769 2771
2807 2804 2802 2800 2798 2796 2794 2792 2789 2787 2784 2781 2779 2778 2776 2774 2772 2770 2768 2766 2764 2762 2761 2759 2758 2758 2757 2756 2756 2755 2754 2754 2753 2753 2752 2752 2751 2751 2750 2750 2750 2750 2750 2751 2752 2752 2753 2754 2754 2754 2754 2755 2755 2756 2757 2758 2758 2759 2760 2761 2761 2763 2765
2801 2798 2796 2793 2791 2789 2787 2786 2783 2780 2777 2775 2773 2771 2769 2768 2766 2764 2762 2760 2759 2757 2755 2754 2753 2753 2752 2751 2750 2749 2749 2748 2748 2747 2747 2746 2746 2745 2745 2744 2744 2744 2745 2745 2746 2746 2747 2747 2748 2748 2749 2749 2750 2751 2752 2752 2752 2753 2754 2755 2755 2756 2759
2794 2792 2789 2786 2785 2782 2780 2779 2777 2773 2771 2769 2766 2764 2762 2761 2760 2758 2756 2755 2753 2751 2750 2749 2749 2748 2747 2746 2745 2744 2743 2743 2742 2742 2741 2741 2741 2740 2740 2739 2739 2739 2740 2740 2740 2740 2741 2741 2742 2742 2743 2743 2744 2745 2746 2746 2746 2747 2748 2749 2749 2751 2753
2787 2784 2781 2779 2778 2775 2772 2771 2769 2767 2764 2762 2760 2758 2756 2754 2753 2752 2751 2749 2747 2746 2745 2745 2744 2743 2742 2741 2740 2739 2739 2738 2737 2736 2736 2736 2736 2735 2735 2735 2735 2735 2735 2734 2734 2734 2735 2736 2736 2737 2737 2738 2739 2740 2740 2740 2740 2741 2742 2743 2744 2746 2748
2780 2778 2774 2772 2770 2768 2766 2764 2762 2760 2758 2755 2753 2751 2750 2748 2747 2746 2745 2744 2742 2741 2741 2741 2740 2739 2738 2737 2736 2735 2734 2733 2732 2732 2732 2732 2731 2731 2730 2730 2730 2730 2729 2729 2729 2729 2730 2731 2731 2732 2733 2733 2734 2735 2735 2735 2735 2736 2737 2738 2740 2741 2743
2774 2772 2768 2765 2763 2761 2759 2757 2755 2753 2751 2749 2747 2745 2744 2742 2741 2740 2739 2738 2736 2736 2736 2736 2735 2734 2733 2732 2731 2730 2729 2728 2728 2728 2727 2727 2727 2727 2726 2726 2725 2725 2724 2724 2724 2725 2725 2726 2726 2727 2728 2729 2729 2730 2731 2731 2731 2732 2732 2734 2735 2736 2738
2768 2765 2762 2759 2757 2754 2752 2750 2748 2746 2744 2742 2741 2739 2738 2737 2735 2734 2734 2733 2731 2731 2730 2730 2729 2729 2728 2727 2726 2725 2724 2724 2723 2723 2722 2722 2722 2722 2722 2721 2720 2720 2720 2720 2720 2720 2720 2721 2721 2722 2723 2723 2724 2725 2726 2726 2727 2727 2728 2729 2730 2731 2733
2763 2759 2755 2753 2751 2748 2746 2743 2740 2739 2737 2736 2734 2733 2732 2731 2729 2729 2729 2728 2726 2725 2725 2725 2724 2723 2723 2722 2721 2720 2720 2719 2719 2718 2717 2717 2717 2717 2717 2716 2716 2715 2715 2715 2715 2715 2716 2716 2717 2717 2718 2719 2719 2720 2721 2721 2722 2723 2723 2724 2725 2726 2728
2758 2754 2751 2747 2745 2742 2740 2737 2734 2732 2731 2729 2729 2728 2726 2724 2724 2724 2724 2723 2721 2720 2720 2720 2719 2718 2718 2717 2716 2716 2715 2714 2714 2713 2713 2712 2712 2712 2712 2712 2711 2711 2711 2711 2711 2711 2712 2712 2713 2713 2713 2714 2715 2715 2716 2717 2718 2718 2719 2720 2721 2722 2723
2751 2748 2745 2742 2739 2736 2734 2731 2728 2726 2725 2724 2724 2722 2720 2718 2718 2718 2718 2717 2716 2715 2715 2714 2714 2713 2713 2712 2711 2711 2710 2709 2709 2709 2708 2707 2707 2707 2707 2707 2706 2706 2706 2706 2707 2707 2708 2708 2709 2709 2709 2710 2710 2711 2712 2713 2714 2714 2715 2716 2716 2717 2719
Wind_Speed
40 40 41 41 42 42 42 42 42 41 41 41 40 40 40 40 40 40 40 40 40 40 40 40 41 42 43 44 44 44 44 44 44 45 46 46 47 47 47 46 47 49 50 51 51 50 49 48 45 43 40 39 38 38 38 37 36 36 35 35 35 35 35
39 40 40 41 42 42 42 42 41 41 41 41 41 40 40 39 39 39 39 39 39 39 39 39 38 38 39 40 41 41 41 41 41 42 43 44 45 46 46 46 47 48 50 51 51 49 47 46 45 43 41 39 38 37 36 36 34 34 33 31 31 30 30
39 40 40 41 41 41 41 42 42 42 42 42 41 41 41 40 40 40 40 40 39 39 39 39 38 37 37 37 38 38 39 39 39 39 39 40 41 43 44 45 46 46 48 49 50 48 46 44 43 44 42 40 38 37 35 34 33 32 31 30 30 29 28
39 40 40 41 41 42 42 43 43 43 44 44 43 43 42 42 42 42 41 41 41 40 40 40 39 38 37 37 36 36 37 37 37 37 37 37 37 39 40 42 43 45 46 47 47 46 44 42 42 43 42 41 39 38 36 35 34 33 32 31 31 30 29
40 41 41 42 43 43 44 44 45 45 45 45 45 44 44 43 43 43 43 43 43 42 42 41 40 39 38 37 37 36 36 36 36 36 36 36 36 36 37 38 40 41 43 44 45 44 43 41 40 41 41 41 40 39 38 37 37 36 35 34 33 32 32
41 42 43 44 44 44 44 44 44 44 44 44 44 44 44 44 43 43 43 43 43 43 43 43 42 41 40 39 38 37 37 36 36 35 36 36 36 37 37 37 38 38 39 41 42 42 41 40 40 41 40 40 40 40 39 39 39 38 38 37 36 36 35
42 42 43 43 43 43 43 43 43 43 43 43 43 43 43 43 43 43 43 43 44 44 44 45 44 43 42 41 40 39 38 38 37 37 36 36 36 36 37 38 38 38 39 39 40 41 41 40 40 41 41 40 40 41 41 41 41 41 41 40 39 39 38
41 41 42 42 42 42 42 42 42 42 42 42 42 43 43 43 43 43 43 43 43 44 45 46 46 45 45 43 42 42 41 40 39 39 38 37 37 37 37 37 38 38 39 39 40 40 41 41 41 41 41 41 41 41 42 42 43 43 43 43 42 41 40
41 41 41 41 42 42 42 43 43 44 44 43 43 43 43 43 43 43 43 43 43 44 45 46 47 47 47 46 45 44 43 42 42 41 40 40 39 39 38 38 38 38 38 39 40 40 41 41 42 41 41 41 42 42 42 43 43 44 45 45 44 43 42
41 41 42 42 43 43 44 44 45 45 45 45 45 45 44 44 44 44 45 44 44 44 45 46 47 47 48 48 47 46 45 44 44 43 43 42 41 41 41 41 40 40 40 39 40 40 40 41 41 41 41 41 41 42 42 42 43 44 45 46 45 44 44
42 43 44 44 45 45 45 45 45 46 47 47 46 46 46 46 46 45 45 45 45 45 45 46 46 47 47 48 48 48 47 46 45 45 44 44 44 43 43 43 43 42 42 42 41 41 41 41 42 42 41 41 41 41 42 42 43 43 44 45 45 45 44
44 44 45 46 46 46 46 46 46 46 47 47 47 47 47 47 47 46 46 45 45 45 46 46 46 46 46 47 48 48 48 48 47 45 45 45 44 44 44 45 45 45 44 44 44 44 43 43 43 43 43 43 42 42 42 42 43 43 44 44 44 44 44
45 45 46 46 47 47 47 47 47 47 48 48 48 47 47 47 47 47 46 45 44 44 45 46 46 46 45 46 47 48 48 48 48 47 46 45 45 44 44 45 45 46 46 46 46 46 46 45 45 45 45 44 44 44 44 44 44 45 45 45 45 45 45
44 45 45 46 46 47 47 47 47 47 48 48 48 47 47 47 47 47 47 45 44 43 44 45 45 45 45 44 45 46 47 48 48 48 47 46 45 44 44 44 44 45 45 46 46 47 47 47 47 47 47 47 46 46 46 46 46 47 47 48 48 48 48
43 44 44 45 46 46 47 46 46 47 47 48 48 48 48 48 48 48 47 46 44 43 43 44 44 45 45 44 44 45 46 47 48 48 48 47 46 45 44 44 43 44 45 46 47 47 47 47 47 48 48 48 48 48 48 49 49 49 49 49 49 49 49
44 44 44 45 45 46 46 46 46 46 47 47 48 48 49 49 49 49 48 46 44 43 43 43 44 44 44 44 44 44 45 47 48 48 48 47 46 46 44 43 43 44 45 46 47 47 47 47 46 46 47 47 48 49 49 49 48 48 48 49 50 50 49
45 45 45 46 45 46 46 45 45 46 46 46 47 47 48 49 49 49 49 47 45 43 43 43 44 44 44 44 44 44 44 46 47 48 48 47 47 46 45 44 43 44 46 47 47 47 47 47 46 45 45 45 46 47 47 47 47 47 48 49 50 51 50
47 47 47 47 47 47 47 46 46 46 46 46 46 47 47 48 48 49 49 47 46 45 44 43 43 44 44 44 43 43 44 45 47 47 47 47 47 47 46 44 44 46 47 47 47 47 47 47 46 45 45 44 45 45 46 46 46 46 46 48 49 50 49
49 49 49 49 48 48 48 48 47 47 47 46 46 46 46 47 48 48 48 48 47 46 45 44 43 43 44 44 44 44 44 45 46 47 47 47 47 47 46 45 45 47 47 47 47 47 47 47 47 46 45 44 43 44 45 46 46 45 45 46 47 48 48
51 51 50 50 49 49 49 49 48 48 48 47 46 46 46 46 47 48 48 48 48 47 46 44 43 43 44 44 45 44 44 44 44 45 46 46 46 46 45 45 46 47 47 47 47 47 47 47 47 46 45 43 42 43 43 45 46 46 45 46 46 46 47
51 51 51 50 50 49 48 48 49 48 48 48 47 47 46 46 47 47 47 48 48 48 47 45 43 42 43 44 44 44 43 43 43 44 45 45 45 44 44 44 45 46 46 47 47 47 47 47 46 45 44 43 42 42 42 44 45 46 46 46 47 46 47
52 52 52 51 50 49 49 48 48 48 48 47 47 47 47 46 46 46 47 48 48 48 47 46 44 43 42 43 43 42 42 42 42 42 43 43 44 44 44 44 45 45 46 46 46 46 46 45 45 44 44 44 43 42 42 43 45 46 47 46 46 46 46
52 52 52 51 50 49 48 48 48 47 47 47 47 47 47 46 46 46 47 48 48 47 46 46 45 44 42 42 41 41 41 41 40 40 40 40 42 43 43 44 44 44 44 44 45 46 45 44 43 43 43 43 43 43 44 45 45 45 45 45 44 44 44
52 52 52 50 50 49 48 47 47 46 46 46 46 46 46 45 45 45 46 47 47 46 45 44 44 43 42 41 40 39 39 38 37 37 37 38 40 41 42 42 42 42 43 43 43 44 43 42 42 42 42 42 43 44 45 45 44 43 43 43 43 43 43
52 52 51 50 49 48 48 47 46 45 44 44 45 45 45 44 44 44 44 45 44 44 43 42 42 41 40 39 38 37 36 35 35 35 36 36 37 39 40 41 41 41 41 42 41 41 41 40 40 40 41 42 42 43 42 42 41 41 42 42 42 42 42
51 51 50 49 49 48 47 46 45 44 43 43 44 44 43 42 42 42 42 42 41 41 40 40 39 38 36 35 34 34 33 33 33 34 34 34 36 37 38 39 39 40 40 40 40 39 38 38 38 39 40 40 41 41 40 39 40 40 40 41 41 41 41
50 50 49 48 48 47 46 45 44 43 43 43 43 42 41 40 39 39 39 38 38 38 38 38 37 35 33 32 32 32 32 31 31 32 32 33 34 35 36 37 38 38 38 38 38 37 37 36 36 38 38 38 39 39 38 38 39 39 39 40 40 41 40
49 49 48 47 47 46 45 44 43 42 42 42 42 42 41 39 37 36 36 36 35 36 36 35 34 33 31 31 31 31 30 30 30 31 31 32 32 33 34 35 36 37 36 36 36 36 35 34 34 35 36 36 36 36 35 36 38 38 38 38 39 40 39
49 48 47 47 46 45 45 44 43 42 41 41 41 41 40 38 36 35 34 34 34 34 34 33 32 30 30 30 30 30 30 29 30 30 30 30 31 31 32 33 34 34 33 33 33 33 32 32 32 32 33 33 33 33 33 35 36 37 37 37 38 39 38
48 47 47 46 45 45 44 44 43 42 41 41 40 40 40 38 36 34 32 32 33 33 33 31 30 29 28 29 29 29 29 29 29 30 29 29 30 30 31 31 31 31 30 31 31 31 30 30 30 30 30 30 30 30 31 33 35 35 36 36 37 37 36
47 46 46 46 45 45 44 44 43 42 41 40 40 39 38 37 35 34 32 31 32 33 31 29 28 27 27 27 28 28 28 28 29 28 28 28 28 29 29 29 29 29 29 30 30 29 29 28 27 27 28 28 28 29 30 32 33 34 34 35 35 35 35
46 45 45 44 44 44 44 43 42 41 40 40 39 38 37 36 35 34 32 32 32 32 30 28 28 27 27 27 28 28 28 28 28 27 28 28 28 27 28 28 28 29 29 29 29 28 28 27 26 26 26 27 27 28 29 30 32 33 33 33 34 34 33
45 45 45 44 43 43 43 43 42 41 40 39 38 37 36 35 35 34 32 32 32 31 30 29 28 28 27 27 28 28 28 28 28 28 28 29 28 28 28 28 29 29 29 28 28 28 28 27 26 26 26 26 26 27 27 29 30 31 32 32 32 32 32
43 43 43 43 42 41 41 41 41 41 41 40 38 36 35 35 35 33 31 31 31 31 30 29 28 28 28 28 28 28 28 28 28 28 29 29 29 29 28 28 29 29 28 28 28 28 27 26 26 25 25 25 25 26 26 27 28 30 31 31 31 31 31
43 41 40 40 40 39 38 39 41 41 41 39 37 35 35 36 35 33 30 30 31 31 29 28 28 27 28 28 28 28 28 29 28 28 29 29 28 28 28 27 28 28 27 28 28 27 26 25 25 25 25 25 25 26 26 26 27 28 30 30 31 31 31
45 42 38 36 36 37 37 38 39 40 39 38 36 36 36 37 35 33 31 30 30 30 29 28 27 28 28 28 28 28 28 28 28 28 28 28 27 27 26 25 26 26 26 26 26 25 25 24 24 24 24 25 25 26 26 26 27 27 28 29 30 30 30
Wind_Direction
296 296 296 296 296 296 296 297 297 297 297 297 296 295 295 294 294 293 293 293 293 292 291 289 288 287 286 285 285 283 282 281 280 279 278 276 275 272 271 271 272 272 272 271 270 268 266 264 261 258 255 252 250 247 246 244 244 243 241 240 238 237 238
296 297 297 296 296 297 297 297 297 297 297 297 297 297 296 295 294 293 292 292 292 292 291 291 289 288 286 286 285 284 283 281 280 279 277 276 274 272 271 270 270 270 270 269 268 266 263 260 257 254 251 247 243 240 237 236 234 234 232 231 231 230 231
297 297 297 297 297 297 297 297 297 297 297 297 296 295 294 293 292 291 290 289 289 289 289 289 288 287 286 285 284 283 282 281 279 278 277 276 274 273 271 270 270 268 267 266 265 263 260 257 253 250 246 239 233 230 229 229 228 228 228 227 227 227 227
298 297 297 296 296 296 296 296 296 296 295 295 294 293 291 290 289 288 287 286 286 285 285 285 285 285 284 283 282 282 281 280 279 278 277 276 275 275 273 272 270 268 266 264 263 262 260 255 249 245 240 233 227 224 224 225 225 226 227 228 228 229 229
297 296 296 295 295 295 295 294 294 294 293 293 292 291 289 288 287 286 285 284 283 283 283 283 282 282 282 281 280 280 279 278 277 276 275 274 274 274 274 273 271 269 267 265 263 261 259 255 248 243 238 233 229 226 224 224 224 225 226 228 230 231 232
296 295 295 294 294 294 294 294 293 293 293 292 291 290 289 288 286 285 284 283 283 282 282 281 281 281 280 279 278 278 277 277 276 274 273 272 272 272 272 272 271 269 267 265 264 262 259 256 251 246 243 238 235 233 229 227 226 226 227 228 230 231 232
295 295 294 294 294 294 294 294 293 293 293 292 291 290 289 288 287 285 284 283 282 281 281 280 281 281 280 279 278 277 276 275 275 274 273 272 271 270 269 269 269 269 268 267 265 264 262 260 256 253 250 247 243 239 236 234 232 231 230 230 230 231 232
295 295 295 295 295 295 295 295 294 294 293 292 291 290 289 288 287 286 284 283 282 281 280 280 280 280 280 280 279 277 276 275 274 273 273 272 271 270 269 268 268 268 268 267 267 266 265 263 261 259 256 254 251 247 243 240 238 237 236 235 234 232 232
296 295 295 295 295 295 295 295 294 294 293 292 290 289 289 288 287 286 284 283 282 280 279 279 279 279 279 279 279 278 276 275 274 273 272 271 271 270 269 268 267 267 266 266 266 266 266 265 264 263 261 259 257 254 250 247 244 242 241 239 238 236 234
296 296 296 296 296 296 295 295 294 294 293 291 290 289 288 286 285 284 283 282 281 279 278 277 277 277 277 278 278 277 276 275 274 273 272 271 270 269 269 268 267 267 266 265 265 264 264 264 264 264 262 260 259 257 255 252 249 247 245 242 241 240 238
297 297 297 296 296 295 295 295 294 294 293 292 291 289 288 287 285 284 282 281 280 279 277 276 275 275 276 276 277 277 276 275 274 272 271 270 270 269 268 268 267 267 266 265 265 264 263 262 262 261 261 260 259 257 256 255 253 251 249 246 244 243 242
298 298 297 297 296 296 296 295 295 293 293 292 291 290 289 288 286 285 283 281 280 279 277 276 275 274 274 274 275 275 276 275 275 273 272 270 269 268 268 267 267 266 266 265 265 264 263 262 261 260 259 259 258 257 255 254 253 252 251 249 247 246 245
299 298 298 297 297 296 296 295 295 293 293 292 291 290 289 288 287 286 284 282 280 278 278 277 276 275 274 273 274 274 274 274 274 274 273 271 270 268 267 267 266 266 265 264 264 264 263 263 262 261 260 259 258 257 255 253 252 252 251 251 250 249 248
298 297 296 296 296 295 295 294 294 293 292 292 291 290 289 288 287 286 285 283 281 279 278 277 277 276 275 273 273 273 273 273 273 273 273 272 271 269 268 267 267 266 266 264 263 262 262 262 262 261 261 260 259 258 257 255 253 252 251 250 250 249 249
296 296 296 295 295 295 294 294 293 292 292 291 290 290 289 288 287 286 285 284 283 281 279 278 277 276 276 274 273 272 272 272 272 272 271 271 271 270 269 268 268 267 266 265 264 263 261 261 261 261 261 261 260 259 258 257 256 255 254 253 252 251 250
297 296 296 295 295 294 294 293 292 291 291 290 289 289 288 288 287 287 286 285 284 282 281 279 278 277 276 275 274 273 272 272 271 271 271 270 270 269 269 268 268 267 266 265 265 264 263 262 261 261 261 261 261 260 259 259 258 258 258 257 255 254 253
298 298 297 296 295 294 294 293 292 290 290 289 288 287 287 287 287 286 286 286 285 283 281 280 279 278 277 276 275 274 273 272 271 271 270 270 269 269 268 268 267 266 266 265 264 264 264 264 263 262 261 261 261 261 260 259 259 258 257 257 256 256 255
300 299 299 298 297 295 294 293 292 290 289 288 287 286 286 286 285 285 285 286 285 284 282 280 279 278 278 277 275 274 273 272 272 272 271 271 270 269 268 268 267 266 265 265 265 265 264 264 264 263 262 261 261 261 261 260 259 258 258 257 257 257 257
301 300 300 299 297 296 295 294 293 291 290 289 288 287 286 286 285 285 285 285 284 284 282 281 280 279 278 277 275 274 273 272 272 272 272 272 271 270 269 268 267 266 265 265 265 265 265 264 264 263 263 262 262 261 261 261 260 259 258 258 257 257 257
301 300 299 298 297 296 295 294 293 292 291 290 289 288 287 286 285 285 285 285 284 283 283 282 281 279 278 277 276 275 274 273 272 272 272 272 271 270 270 269 267 266 266 265 264 264 264 264 264 264 264 263 262 261 261 261 260 259 259 258 258 257 257
300 299 298 297 297 296 295 294 293 292 291 290 290 289 287 287 286 285 285 284 284 284 283 282 281 279 278 277 277 276 275 273 272 271 271 271 271 270 269 267 266 265 265 264 264 263 263 264 264 264 264 263 262 261 260 260 260 259 258 257 257 257 256
299 298 298 297 297 296 295 294 293 292 291 291 290 289 288 287 286 285 285 284 284 284 284 283 282 280 278 278 277 276 275 273 272 270 270 270 269 268 267 266 265 265 264 264 264 263 262 262 263 263 264 263 262 261 259 258 258 258 258 258 257 257 257
298 298 297 297 297 296 296 295 294 293 292 291 290 289 288 287 287 286 285 284 284 284 284 284 283 282 280 279 278 277 276 275 273 272 270 269 268 267 266 264 264 263 263 263 263 262 262 261 261 261 262 262 262 261 259 258 258 258 259 259 259 258 258
298 298 298 297 297 296 295 294 294 293 292 291 289 288 288 287 287 286 285 285 285 285 285 284 283 283 282 281 280 279 278 276 275 273 270 268 266 265 265 264 263 262 261 261 260 261 261 261 261 260 260 259 259 259 259 260 260 259 259 259 259 258 258
299 298 298 298 297 295 294 294 293 292 291 290 289 288 288 288 287 286 285 285 285 285 284 284 283 283 283 282 281 280 279 277 275 272 269 268 266 265 265 265 264 263 262 261 260 260 259 259 259 259 259 258 258 258 259 260 260 260 260 259 258 258 257
299 298 298 297 296 295 294 293 293 292 290 289 288 288 288 287 286 285 285 285 284 284 283 282 282 282 283 282 282 280 278 276 274 272 270 268 267 266 265 265 265 264 264 263 263 263 261 260 258 258 258 258 258 258 258 258 258 258 258 258 258 257 257
298 297 297 296 295 294 294 293 293 291 290 289 289 289 288 287 286 285 284 284 283 282 281 281 282 283 283 282 281 279 277 275 274 272 271 269 267 267 267 266 266 266 266 266 266 266 265 263 261 259 258 258 258 258 258 258 257 257 257 257 257 257 256
297 297 296 295 295 294 294 293 293 291 290 290 290 290 289 288 286 284 283 282 280 280 279 280 282 283 283 281 280 278 277 276 274 272 270 269 268 268 267 267 267 268 268 268 268 267 266 265 264 262 260 259 259 258 258 257 257 256 256 256 256 257 256
297 297 296 296 296 295 294 293 292 291 291 291 291 290 290 288 286 284 282 281 280 279 279 280 281 282 281 280 279 278 278 276 274 273 271 270 269 269 268 269 269 270 270 270 268 267 266 265 264 263 261 259 258 257 255 255 255 255 254 254 254 255 255
299 298 298 297 297 296 295 294 293 292 292 292 291 291 290 288 286 283 282 281 280 279 279 280 281 280 279 278 278 277 277 275 273 272 272 272 272 271 271 271 271 271 271 270 268 267 265 264 262 261 261 260 258 255 253 253 253 253 252 252 253 253 254
299 299 298 298 297 296 295 294 293 293 293 292 291 290 289 288 286 284 283 281 279 279 280 281 280 278 276 275 275 274 273 272 271 271 271 271 270 271 271 272 271 271 271 270 269 269 267 265 264 262 260 259 257 255 253 252 252 252 251 251 251 251 251
300 299 298 297 296 295 295 294 293 293 292 291 289 288 287 286 285 284 283 282 281 281 281 281 279 277 276 275 274 273 273 272 273 273 273 272 271 271 271 271 271 270 269 269 270 270 269 268 266 263 260 258 256 254 252 251 251 251 251 251 250 250 249
300 299 298 297 296 295 294 294 293 292 291 289 288 287 287 285 284 283 284 283 283 283 282 281 280 279 277 275 274 273 273 273 273 273 273 272 272 272 271 271 271 270 269 269 269 268 268 267 266 264 261 257 255 252 250 249 250 250 251 251 250 250 249
300 300 298 297 296 295 294 293 292 291 291 290 288 288 287 285 284 284 285 284 283 282 282 281 280 279 277 275 274 274 273 273 273 272 272 271 271 271 271 270 270 269 269 269 268 267 266 266 264 262 260 257 255 253 251 249 249 250 251 251 250 249 248
301 299 297 296 295 293 291 290 289 289 289 289 289 289 287 286 286 286 285 284 283 282 282 281 280 278 276 275 275 275 275 274 273 273 272 272 271 271 271 270 269 269 268 267 266 266 266 265 263 262 261 259 258 256 254 252 250 249 250 250 249 248 247
301 299 297 296 294 291 288 287 286 286 287 287 288 288 287 287 287 287 285 283 282 282 282 281 279 278 276 276 276 276 275 274 274 273 272 272 271 271 270 269 269 268 267 266 266 266 265 264 263 262 262 260 259 258 256 254 252 250 249 249 249 248 247